Regional Weather Roundup
Issued by NWS

Home | Current Version | Previous Version | Text Only | Print | Product List | Glossary Off
Versions: 1 2 3 4 5 6 7 8 9 10 11 12 13 14 15 16 17 18 19 20 21 22 23 24 25 26 27 28 29 30 31 32 33 34 35 36 37 38 39 40 41 42 43 44 45 46 47 48 49 50

284
ASUS43 KLOT 261303
RWRIL

ILLINOIS REGIONAL WEATHER ROUNDUP
NATIONAL WEATHER SERVICE CHICAGO/ROMEOVILLE IL
800 AM CDT THU MAY 26 2016

NOTE: "FAIR" INDICATES FEW OR NO CLOUDS BELOW 12,000 FEET WITH NO
SIGNIFICANT WEATHER AND/OR OBSTRUCTIONS TO VISIBILITY.

* THESE STATIONS ARE NOT UNDER NWS QUALITY CONTROL. THEY ALSO MAY NOT
  REPORT WEATHER SUCH AS PRECIPITATION OR FOG.

ILZ001-002-007-009-015-016-024-261400-
NORTHWEST ILLINOIS

CITY           SKY/WX    TMP DP  RH WIND       PRES   REMARKS
MOLINE         CLOUDY    67  61  81 CALM      29.90F
STERLING*      LGT RAIN  66  62  87 W7        29.91R
$$

ILZ003-004-008-010-011-017-018-261400-
NORTH CENTRAL ILLINOIS

CITY           SKY/WX    TMP DP  RH WIND       PRES   REMARKS
ROCKFORD       TSTM      67  63  87 W28G37    29.95R FOG
FREEPORT*      TSTM      62  60  93 S6        29.92F
ROCHELLE*      CLOUDY    68  66  92 SW13      29.94R THUNDER
$$

ILZ005-006-012>014-019>023-261400-
NORTHEAST ILLINOIS

CITY           SKY/WX    TMP DP  RH WIND       PRES   REMARKS
CHICAGO-OHARE  CLOUDY    70  66  87 SW10      29.92S
CHICAGO-MIDWAY CLOUDY    72  65  78 SW12G17   29.93S
AURORA         CLOUDY    71  67  87 SW12      29.94R
LANSING*       PTSUNNY   71  66  84 S8        29.94F
WAUKEGAN       PTSUNNY   70  67  90 SW10      29.90S
DUPAGE AIRPORT CLOUDY    70  65  84 S12       29.92S
WHEELING       PTSUNNY   71  66  84 S8        29.93S
NORTHERLY ISL    N/A     71  65  81 S7          N/A
NORTHERLY ISL    N/A     71  65  81 S7          N/A
$$

LMZ740>746-261400-
SOUTHERN LAKE MICHIGAN

STATION/POSITION SKY/WX   TEMP    WIND        PRES    VSBY  WAVE
                          AIR SEA DIR/SP/G                  HT/PER
                          (F)     (DEG/KT/KT) (MB)    (MI)  (FT/S)
SOUTHERN BUOY              54 49  170/ 14/ 16 1012.8          2/ 4
WILMETTE HARBOR            63 55  230/  6/  6   N/A           1/ 3
HARRISON CRIB              69     200/ 12/ 13   N/A
BURNHAM HARBOR             71     200/  6/ 11   N/A
CALUMET HARBOR             69     200/ 10/ 14 1013.1S
BURNS HARBOR               69     180/  9/ 17 1014.6R
MICHIGAN CITY              68     160/ 12/ 14   N/A
MICHIGAN CITY 6N           64 58  200/  8/ 10   N/A           1
ST. JOSEPH                 63 59  180/  8/ 10   N/A           1
$$

ILZ025>027-034>036-040-047-049-050-058-095>099-261400-
WEST-CENTRAL ILLINOIS

CITY           SKY/WX    TMP DP  RH WIND       PRES   REMARKS
QUINCY         CLOUDY    68  63  84 NE5G22    29.88F
MACOMB*        CLOUDY    65  64  97 S7        29.93F
PITTSFIELD*    CLOUDY    66  65  96 E7        29.93F
$$

ILZ028>032-037-038-041>044-048-051>054-059>061-261400-
CENTRAL ILLINOIS

CITY           SKY/WX    TMP DP  RH WIND       PRES   REMARKS
BLOOMINGTON    TSTM      67  67 100 VRB5      30.01R
DECATUR        TSTM      66  63  90 NW12G26   30.03R VSB 1
PEORIA         LGT RAIN  66  64  93 E5        29.91F
SPRINGFIELD    LGT RAIN  67  64  90 SE5       29.96F
TAYLORVILLE    NOT AVBL
$$

ILZ033-039-045-046-055>057-062-063-261400-
EAST-CENTRAL ILLINOIS

CITY           SKY/WX    TMP DP  RH WIND       PRES   REMARKS
CHAMPAIGN      CLOUDY    71  66  84 S12       29.98R
MATTOON        CLOUDY    70  64  81 S14       29.98R
$$

ILZ079-100>102-261400-
SOUTHWEST ILLINOIS

CITY           SKY/WX    TMP DP  RH WIND       PRES   REMARKS
ALTON          TSTM      66  63  88 W8G20     30.04R
BELLEVILLE     TSTM      68  68 100 SW9G28    30.05R FOG
CAHOKIA*       TSTM      66  63  90 NE3       30.03R FOG
SPARTA*        CLOUDY    70  67  89 S10       30.01R
$$

ILZ064>066-069>071-074>076-080>082-084>086-088>090-092>094-261400-
SOUTH-CENTRAL ILLINOIS

CITY           SKY/WX    TMP DP  RH WIND       PRES   REMARKS
CARBONDALE     CLOUDY    72  64  76 S12       30.01R
MARION         PTSUNNY   73  66  78 S14       30.03R
MT. VERNON     MOSUNNY   72  63  73 SW8       30.02R
SALEM*         PTSUNNY   73  66  80 S8        29.99R
$$

ILZ067-068-072-073-078-083-087-091-261400-
SOUTHEAST ILLINOIS

CITY           SKY/WX    TMP DP  RH WIND       PRES   REMARKS
LAWRENCEVILLE  SUNNY     71  64  78 S10       30.02S
FLORA*         PTSUNNY   72  65  80 S7        30.00R
HARRISBURG*    MOSUNNY   73  66  80 SW9       30.01R
ROBINSON*      MOSUNNY   70  65  84 S7        30.02R
$$

ABBREVIATIONS USED IN REMARKS
   TC - TEMPERATURE IN CELSIUS
  WCI - WIND CHILL INDEX
   HX - HEAT INDEX
  VSB - VISIBILITY
$$





USA.gov is the U.S. government's official web portal to all federal, state and local government web resources and services.